Location: Tel Aviv
(32.0670°N, 34.7670°E)
Time: 02:33:42
(UTC+03:00)

Tiros 1 - Pass Details

Date: 19 January 2022
Orbit: 629 x 663 km, 48.4° (Epoch: 26 May)

Event Time Altitude Azimuth Distance (km) Brightness Sun altitude
Rises 03:16:40 0° 304° (WNW) 2,979 - -43.0°
Reaches altitude 10° 03:21:06 10° 342° (NNW) 2,059 - -42.0°
Maximum altitude 03:22:13 11° 356° (N) 2,009 - -41.8°
Drops below altitude 10° 03:23:19 10° 9° (N) 2,054 - -41.6°
Exits shadow 03:26:40 - 41° (NE) 2,662 10.7 -40.9°
Sets 03:27:44 0° 48° (NE) 2,954 11.1 -40.6°
